Location: Bauerbach
(50.4985°N, 10.3912°E)
Time: 06:00:15
(UTC+00:00)

Cosmos 1470 Rocket - Pass Details

Date: 13 January 2026
Orbit: 598 x 625 km, 82.5° (Epoch: 17 February)

Event Time Altitude Azimuth Distance (km) Brightness Sun altitude
Rises 06:13:24 0° 179° (S) 2,846 7.3 -9.4°
Reaches altitude 10° 06:15:37 10° 175° (S) 1,944 6.5 -9.1°
Maximum altitude 06:19:51 61° 96° (E) 689 4.2 -8.5°
Drops below altitude 10° 06:24:06 10° 17° (NNE) 1,951 6.0 -7.8°
Sets 06:26:20 0° 14° (NNE) 2,857 6.9 -7.5°
